Regional Weather Roundup
Issued by NWS

Home | Current Version | Previous Version | Text Only | Print | Product List | Glossary Off
Versions: 1 2 3 4 5 6 7 8 9 10 11 12 13 14 15 16 17 18 19 20 21 22 23 24 25 26 27 28 29 30 31 32 33 34 35 36 37 38 39 40 41 42 43 44 45 46 47 48 49 50

000
ASUS45 KCYS 012110
RWRWY

WYOMING REGIONAL WEATHER ROUNDUP
NATIONAL WEATHER SERVICE CHEYENNE WY
300 PM MDT MON JUN 01 2015

NOTE:  "FAIR" INDICATES FEW OR NO CLOUDS BELOW 12,000 FEET
WITH NO SIGNIFICANT WEATHER AND/OR OBSTRUCTIONS TO VISIBILITY.

WYZ001-012200-
YELLOWSTONE NATIONAL PARK

CITY           SKY/WX    TMP DP  RH WIND       PRES   REMARKS
LK YELLOWSTONE   N/A     58  43  57 CALM      30.08F
W YELLOWSTONE  NOT AVBL

$$
WYZ002>013-054>058-071-098>099-012200-
NORTHERN WYOMING

CITY           SKY/WX    TMP DP  RH WIND       PRES   REMARKS
JACKSON        PTSUNNY   73  43  33 SW7       29.96F
CODY           FAIR      73  54  49 S6        29.89F
GREYBULL       FAIR      86  47  25 S8G17     29.80F
WORLAND        FAIR      85  53  33 SE8       29.82F
SHERIDAN       FAIR      80  60  50 CALM      29.85F
BUFFALO        FAIR      79  56  45 VRB5      29.91F
GILLETTE         N/A     85  54  34 SW15      29.87F
HULETT         FAIR      82  50  32 SW7       29.90F
NEWCASTLE      FAIR      81  52  36 S13       29.92F

$$
WYZ014>020-022>026-101>103-012200-
CENTRAL WYOMING

CITY           SKY/WX    TMP DP  RH WIND       PRES   REMARKS
BIG PINEY      FAIR      75  37  25 W14G24    30.04F
PINEDALE       MOCLDY    63  41  45 W10G25    30.07R THUNDER
DUBOIS         TSTM      63  43  48 NW10      30.03F
LANDER         FAIR      76  41  28 S36G46    29.90F
RIVERTON       FAIR      81  42  25 SE7       29.91F
CASPER         FAIR      83  40  21 SW14      29.94F
DOUGLAS        FAIR      83  49  30 VRB5      29.94F

$$
WYZ021-027>030-104>119-012200-
SOUTHERN WYOMING

CITY           SKY/WX    TMP DP  RH WIND       PRES   REMARKS
EVANSTON       FAIR      76  32  20 SW24G32   30.04F
KEMMERER       FAIR      77  28  16 SW22G31   30.06F
FORT BRIDGER   TSTM      64  45  48 S18G31    30.08S
ROCK SPRINGS   FAIR      81  34  18 SW26G38   30.02F
DIXON          FAIR      75  38  25 S9        30.09F
RAWLINS        FAIR      80  36  20 SW21G26   30.05F
SARATOGA       FAIR      73  43  33 E5        30.09F
LARAMIE        FAIR      72  44  36 NE9       30.14F
CHEYENNE       FAIR      71  44  37 N13G24    30.08R
TORRINGTON     FAIR      81  55  40 SE9       29.93F
PINE BLUFFS    FAIR      81  45  28 S10       30.02F

$$



USA.gov is the U.S. government's official web portal to all federal, state and local government web resources and services.